RH
95 100 100 100 100 100 76 100 100 100 97 100 95 89 77 58 45 41 36 38 41 45 49 53 59 55 56 58 57 48 38 37 37 32 27 24 20 20 19 17 16 13 12 11 11
100 100 100 100 100 100 77 100 100 100 100 98 99 93 90 76 60 41 42 44 45 45 48 52 58 65 65 58 57 51 44 42 38 32 28 25 24 20 20 20 20 19 15 13 12
95 100 100 100 100 100 87 76 100 100 100 100 100 100 94 87 82 57 46 47 47 46 46 53 55 58 67 74 64 60 52 47 42 37 37 32 27 24 24 21 20 21 21 16 13
78 89 94 92 85 88 100 82 78 100 100 100 100 100 99 89 92 86 67 54 48 49 48 54 54 56 64 73 80 67 62 54 45 44 44 39 37 32 28 26 22 22 21 16 14
86 78 85 78 80 76 76 100 86 73 100 100 100 100 98 87 94 97 96 87 71 53 54 54 58 58 65 70 79 78 68 63 48 42 50 48 42 40 34 34 29 26 26 16 15
67 72 100 90 70 67 62 72 100 81 61 100 100 100 100 98 80 93 97 98 100 99 88 71 62 58 62 71 80 82 76 69 60 58 57 51 49 42 36 34 36 31 32 22 17
65 88 97 100 94 75 66 69 87 100 62 82 100 100 100 100 100 97 90 95 100 100 100 100 85 69 62 68 84 80 83 74 72 64 64 61 61 50 48 39 37 36 35 34 21
60 80 96 76 100 97 67 59 77 99 65 69 98 100 100 100 100 100 100 100 100 100 100 100 100 100 99 89 86 89 80 77 74 64 66 74 70 59 54 50 44 38 39 47 37
40 56 83 96 94 100 97 83 64 70 99 62 91 100 100 100 100 100 100 100 100 100 100 100 100 100 100 100 99 100 100 87 64 70 74 82 70 62 55 52 54 55 40 42 46
38 36 54 76 98 100 100 94 70 90 100 100 100 100 99 76 87 100 100 100 100 100 100 100 100 100 100 100 100 97 91 94 83 75 67 81 73 66 53 55 55 47 46 43 42
50 39 39 43 64 94 100 100 76 59 100 95 78 83 100 100 91 100 100 100 100 100 100 100 100 100 100 100 100 100 100 100 94 77 66 85 76 59 47 54 45 43 48 48 42
51 52 43 46 50 64 97 100 99 95 99 100 98 81 91 95 95 99 100 100 100 100 100 100 100 100 100 100 100 100 100 100 96 86 69 74 76 46 49 53 44 43 48 46 49
40 61 50 47 42 55 60 93 100 100 94 81 92 97 100 100 99 100 100 100 100 100 100 100 100 100 100 100 100 100 100 100 96 86 76 87 90 60 48 67 58 56 53 54 53
51 47 61 57 49 40 62 55 83 100 100 100 100 90 100 90 97 100 100 100 100 100 100 100 100 100 100 100 100 97 99 100 92 84 79 80 62 70 68 70 72 64 53 51 50
62 49 40 47 59 52 45 53 94 81 88 100 100 100 93 99 100 100 100 100 100 100 100 100 100 100 100 100 98 97 98 96 93 94 66 46 42 80 82 78 68 60 62 56 51
66 63 63 51 45 60 56 51 52 74 81 71 89 100 100 100 100 99 100 100 100 100 100 100 100 100 100 100 98 100 100 100 91 68 40 54 58 49 99 96 76 66 63 55 52
69 75 73 87 73 64 58 59 54 43 56 85 99 99 100 100 100 100 100 100 100 100 100 100 100 100 100 98 93 98 100 89 75 65 58 68 54 42 91 85 100 89 67 50 56
86 100 98 94 93 88 79 66 57 75 75 59 66 87 100 100 100 100 100 100 100 100 100 100 100 100 100 100 100 96 100 82 69 75 66 56 39 58 99 64 82 85 78 64 48
96 93 100 100 100 98 96 87 90 87 100 86 73 63 69 91 100 100 100 100 100 100 100 100 99 99 99 100 100 100 91 91 79 68 61 58 54 57 90 100 80 71 73 67 70
68 88 100 100 100 100 100 98 100 100 100 100 100 91 74 80 98 100 100 100 100 100 100 100 100 100 100 100 93 83 89 84 81 73 64 52 53 76 100 92 79 74 71 86 92
100 100 100 100 100 100 100 100 100 100 100 100 100 100 100 100 96 100 100 100 100 100 100 94 91 94 89 87 96 93 90 96 87 66 57 61 72 90 88 86 89 90 100 95 87
100 100 100 100 100 100 100 100 100 100 100 100 100 100 100 100 100 100 100 100 100 100 100 100 91 91 95 94 90 85 84 81 86 95 85 67 70 87 90 98 100 100 94 92 83
79 98 100 100 100 100 100 100 100 100 100 100 100 100 100 100 100 100 100 100 100 100 100 100 100 100 97 93 92 100 100 100 99 96 81 85 95 100 65 76 96 100 100 100 93
60 78 86 96 94 100 100 100 100 100 100 100 100 100 100 100 100 100 100 100 100 100 100 100 100 100 100 100 100 100 100 100 100 97 93 74 91 73 69 79 92 98 81 77 76
53 50 57 64 76 92 92 100 100 100 100 100 100 98 100 100 100 100 100 100 100 100 100 100 100 100 100 100 100 100 100 100 100 99 72 79 61 99 99 99 79 76 66 67 64
64 46 57 52 63 74 77 88 100 100 100 100 100 100 100 100 100 100 100 100 100 100 89 85 84 92 100 100 100 100 100 100 90 78 69 90 62 100 100 100 76 57 50 48 51
100 90 67 60 64 65 66 72 98 100 100 100 100 100 100 100 100 100 100 100 94 97 99 99 100 100 100 100 99 77 89 88 90 85 90 68 62 100 100 96 85 68 55 38 42
Wind_Speed
38 39 41 45 46 46 52 51 48 46 43 44 45 42 41 41 39 37 35 33 31 29 26 24 23 23 23 23 25 26 25 26 27 26 25 24 22 21 23 23 23 24 29 36 41
38 39 40 42 44 47 56 55 53 50 45 45 47 45 44 43 41 39 36 35 32 30 28 26 24 23 24 24 24 26 26 25 24 23 22 22 23 23 24 23 22 24 23 29 39
37 36 39 42 42 43 55 58 55 50 51 49 48 48 47 46 43 41 38 37 34 31 30 28 27 26 24 26 25 26 28 27 26 24 22 22 24 26 25 26 26 26 25 28 32
34 35 38 40 41 44 50 55 54 53 54 52 52 51 48 48 46 44 43 41 38 34 33 31 30 28 27 26 26 27 30 30 29 27 26 26 25 25 26 27 27 27 28 31 33
36 38 38 40 41 44 49 56 57 56 54 54 53 54 51 48 50 48 47 46 43 39 37 36 34 33 31 30 28 28 30 31 31 30 30 29 26 27 27 27 26 27 28 30 34
37 39 39 41 42 45 44 52 55 59 56 53 54 53 54 51 47 49 50 49 48 45 43 40 38 37 36 34 32 30 32 33 34 34 33 32 28 27 28 28 26 25 26 27 31
38 40 40 38 45 45 46 52 54 60 58 55 56 52 52 47 55 51 50 49 52 50 47 46 44 42 41 38 38 34 33 36 36 36 35 35 33 32 31 30 28 26 25 26 26
43 44 41 42 47 51 47 45 54 55 62 61 57 61 53 55 52 52 54 52 50 50 52 50 47 46 45 44 43 40 37 37 39 38 38 37 36 35 34 32 31 29 26 24 23
48 48 46 44 45 51 53 50 51 54 59 60 59 63 60 59 59 53 52 53 54 53 52 51 48 48 48 49 47 43 43 43 40 39 42 40 38 38 38 37 35 34 29 26 24
39 47 50 49 49 49 54 52 53 54 53 58 61 61 61 61 60 60 56 56 56 57 57 54 53 52 51 51 47 46 44 44 42 41 40 40 39 40 39 39 39 36 34 33 30
39 42 48 53 53 53 52 55 54 55 58 59 62 62 64 65 65 61 61 62 63 61 62 60 57 56 55 50 48 45 43 44 45 44 43 42 44 43 40 40 39 38 39 38 36
37 41 42 50 52 55 54 53 57 57 59 62 60 63 65 66 66 65 61 60 60 60 61 60 57 55 53 51 49 48 47 48 47 47 46 45 48 44 44 45 44 43 45 45 44
37 38 40 41 48 58 58 59 56 60 60 63 64 64 60 62 64 63 62 60 59 60 61 61 58 57 55 53 52 51 51 53 52 51 48 49 51 48 44 49 49 50 50 51 51
39 39 39 39 40 42 59 60 64 61 62 64 62 62 61 64 64 62 60 60 60 63 63 60 57 57 56 57 55 53 53 55 56 54 51 56 50 52 51 52 54 55 55 56 59
45 44 43 41 38 39 38 47 64 68 64 62 62 66 66 64 64 63 62 61 64 64 61 59 61 61 61 60 59 55 56 57 58 56 60 56 53 48 54 57 59 59 61 62 62
53 50 50 48 45 43 41 39 44 64 64 67 64 66 68 69 70 69 66 65 66 65 65 64 65 65 63 63 61 60 59 60 61 64 57 56 57 49 56 62 63 63 64 65 65
62 58 56 53 52 50 48 46 43 41 49 63 67 69 70 72 73 71 72 71 70 70 68 69 69 68 66 64 63 63 63 65 66 64 57 60 59 51 57 62 65 68 68 67 64
71 68 66 62 58 56 54 51 48 48 50 50 57 66 69 72 75 77 76 76 74 75 75 74 73 70 68 66 66 66 67 71 68 65 63 62 57 54 60 62 68 70 69 69 67
74 73 72 71 67 64 59 55 54 57 57 56 56 57 60 69 73 74 77 79 81 81 80 78 76 74 73 71 69 69 71 73 72 68 66 61 59 58 61 67 69 72 70 70 67
80 81 80 76 75 71 66 62 59 61 65 64 61 59 59 59 66 75 78 78 81 79 78 77 76 75 74 74 76 74 74 75 74 72 69 63 60 61 66 69 70 71 71 69 65
88 88 85 84 79 77 69 68 66 66 65 68 69 67 66 65 63 66 73 78 82 84 86 87 85 81 80 78 77 77 75 77 77 74 71 67 65 66 67 69 69 70 70 68 67
94 94 90 91 85 78 76 73 74 70 69 68 71 72 73 71 70 69 70 75 78 80 82 84 84 84 84 83 82 81 79 79 79 77 77 74 65 67 66 66 68 71 71 72 70
89 96 97 95 90 82 79 77 78 76 74 74 73 75 77 79 79 77 77 78 79 82 83 83 82 82 81 81 80 81 83 84 85 84 77 79 64 62 71 73 75 75 74 73 72
82 89 92 92 90 87 88 88 84 84 84 82 81 80 81 84 84 84 86 87 86 87 87 88 84 83 84 86 88 86 86 85 85 83 81 78 70 73 76 78 80 79 79 78 76
85 82 82 82 86 87 91 88 84 83 87 88 87 86 88 90 90 90 92 93 93 92 91 89 87 88 89 89 89 87 85 85 84 83 90 73 82 73 78 83 84 83 83 81 78
94 84 84 82 84 87 86 82 82 82 85 86 88 92 94 92 93 96 100 100 99 98 98 95 93 95 94 95 97 96 89 87 88 89 87 82 85 81 86 83 86 87 87 84 83
99 100 96 92 90 89 80 82 85 89 88 87 91 95 95 93 102 106 107 102 102 101 100 98 96 97 95 100 102 99 82 91 93 91 92 93 80 94 90 89 88 87 89 90 91
Wind_Direction
191 195 201 201 206 207 202 204 214 207 205 208 204 201 198 197 200 202 205 208 211 213 215 219 225 227 228 229 227 227 224 227 230 232 230 233 241 244 245 242 245 245 243 243 244
200 202 205 207 208 209 202 200 213 211 210 213 209 204 202 202 205 208 210 212 214 217 217 222 226 231 233 234 236 230 231 231 231 233 239 243 247 249 252 253 256 263 259 249 245
206 210 211 210 211 210 208 203 203 220 227 216 216 211 209 207 208 212 215 216 218 223 225 226 229 234 238 236 240 239 236 236 239 243 249 252 255 256 260 259 259 262 269 268 253
211 213 211 213 219 214 213 211 210 213 224 227 221 215 218 215 213 215 217 220 222 225 230 233 237 239 243 243 243 247 246 243 241 244 252 253 260 262 262 263 264 268 273 274 262
217 216 217 221 226 224 213 214 217 217 218 224 230 223 220 220 220 219 220 222 224 227 231 235 239 245 247 248 246 244 246 247 245 247 254 255 259 263 269 270 267 269 275 278 264
228 221 222 226 229 227 225 214 215 218 214 222 229 229 229 225 221 224 226 227 228 229 232 236 238 243 247 249 249 244 244 245 248 251 252 257 262 266 272 273 272 277 284 292 268
233 229 230 231 230 229 226 221 218 218 218 215 228 230 231 238 233 229 226 230 232 233 234 236 237 241 246 248 251 248 249 247 247 247 251 259 264 268 275 277 275 283 289 298 282
234 234 237 233 228 230 231 228 220 220 217 223 222 232 236 236 239 240 238 236 240 240 238 239 240 243 246 246 249 251 251 251 246 245 248 256 265 269 272 274 276 282 284 292 302
239 235 234 230 230 228 230 229 225 220 221 219 223 226 230 236 238 238 242 245 244 245 247 246 246 248 249 249 248 252 251 249 248 251 249 253 260 266 270 274 274 275 279 284 285
250 238 234 231 229 227 229 230 224 224 226 225 226 226 228 228 232 238 241 243 245 246 247 247 247 249 250 248 246 250 252 247 250 253 251 252 258 263 269 273 274 274 277 279 279
251 245 237 235 231 228 226 227 228 225 227 227 225 227 229 229 230 233 238 244 248 249 250 249 248 247 246 248 248 250 251 248 248 250 250 253 257 260 267 271 272 273 275 276 277
247 247 243 236 233 230 227 224 226 228 227 227 228 229 229 229 230 235 238 241 243 245 246 246 244 243 245 248 248 249 246 247 246 247 248 252 258 258 266 270 270 272 273 275 275
247 246 244 241 235 232 231 230 226 227 227 228 226 225 230 231 232 236 240 244 246 248 246 244 244 243 245 249 252 250 248 247 243 246 248 250 255 262 264 269 271 271 274 275 277
247 243 243 241 239 233 234 233 230 228 227 229 229 229 231 233 235 238 239 239 243 243 242 242 243 245 248 249 248 247 248 247 246 246 247 251 254 263 264 265 268 272 276 279 281
247 246 243 242 244 238 238 236 232 232 230 230 231 232 234 235 232 234 237 241 241 240 240 239 243 245 246 247 247 248 248 247 246 247 248 254 257 261 267 267 266 271 278 281 282
243 243 243 246 243 242 240 241 236 234 234 233 234 235 235 234 235 236 236 238 239 239 239 240 242 244 245 246 247 249 251 249 247 248 254 257 259 258 265 269 272 273 278 281 282
246 242 243 243 244 243 244 243 242 240 237 236 235 235 235 236 236 236 236 237 238 240 241 241 243 244 245 247 249 250 251 252 251 254 253 255 259 262 264 268 273 277 280 283 282
246 245 244 244 244 242 244 243 243 239 239 238 236 237 236 237 237 238 239 238 239 240 241 241 243 245 246 247 249 250 250 252 254 254 254 256 262 263 266 266 270 278 281 281 282
243 245 246 245 244 246 242 243 243 243 241 238 238 238 237 237 237 239 241 241 241 241 242 244 245 247 248 249 250 250 252 254 256 256 257 260 262 264 266 268 270 275 277 278 278
242 244 244 246 245 245 245 247 245 242 242 241 240 242 241 240 239 237 238 240 241 242 242 243 244 244 245 246 249 251 254 256 258 258 260 261 262 264 265 268 272 273 273 272 272
241 244 243 244 246 246 246 249 249 248 244 242 240 239 243 243 242 241 242 241 241 242 244 244 245 246 247 250 251 253 255 257 258 261 262 260 259 261 266 269 270 269 268 269 270
242 242 245 245 245 244 246 244 246 246 248 245 243 243 240 242 242 244 243 243 243 245 245 245 246 248 250 251 253 254 256 258 259 259 259 261 262 265 267 267 265 266 268 270 270
242 241 242 244 245 245 244 245 245 246 243 246 243 243 245 245 243 242 242 244 245 246 246 247 248 249 251 253 254 254 254 256 258 259 262 262 264 261 264 263 262 263 265 267 269
242 241 243 245 246 245 248 249 248 248 248 244 245 244 243 243 244 245 246 244 243 244 245 246 247 249 250 250 252 253 254 256 258 260 260 261 261 264 262 262 262 262 265 267 268
242 239 239 241 243 243 245 246 248 250 250 248 248 246 245 243 244 244 245 244 247 248 248 247 247 248 249 251 252 254 256 258 260 261 261 262 264 263 262 259 261 266 267 267 268
250 244 243 239 239 241 243 244 246 247 249 249 249 246 245 246 245 245 245 245 247 248 247 247 245 247 248 250 250 250 252 256 260 263 266 263 260 264 258 262 265 266 267 268 268
245 246 246 241 239 242 245 246 245 245 246 247 246 245 247 247 245 245 245 246 247 247 249 250 251 252 254 256 256 255 261 261 259 261 263 263 266 263 266 265 265 266 267 266 266